• Join FlightAware (Why Join?)
  • Login
  • US Flag 
08:04AM EST


 

Airport Tracker/Info


-or-


 

Live Flight TrackerFlight Track Log ✈ N352VA ✈ 29-Apr-2013 ✈ KGGP - KHAO

Flight Track Log - Related Links

Times and Time Zones

All times are in EDT time to prevent confusion due to time zone crossing. See the N352VA flight status page for this flight to view local times or setup timezone preferences in your user account.

Time Position Orientation Groundspeed Altitude Reporting Facility
EDT Latitude Longitude Course Direction KTS MPH feet Rate Location/Type
04:03PM 40.8228 -86.5789 141° Southeast 119 137 7,600  Level Chicago Center
04:04PM 40.8006 -86.5550 141° Southeast 121 139 7,600  Level Chicago Center
04:05PM 40.7706 -86.5236 142° Southeast 120 138 7,600 120 Level Chicago Center
04:06PM 40.7511 -86.4989 136° Southeast 116 133 7,900 420 Climbing Chicago Center
04:07PM 40.7261 -86.4678 137° Southeast 105 121 8,500 480 Climbing Chicago Center
04:08PM 40.7050 -86.4417 137° Southeast 103 119 8,900 240 Climbing Chicago Center
04:09PM 40.6783 -86.4111 139° Southeast 117 135 9,100  Climbing Chicago Center
04:10PM 40.6522 -86.3850 143° Southeast 131 151 9,000 -60 Descending Chicago Center
04:11PM 40.6281 -86.3589 141° Southeast 130 150 9,000  Level Chicago Center
04:11PM 40.6219 -86.3542 150° Southeast 130 150 9,000  Level Chicago Center
04:12PM 40.5978 -86.3297 142° Southeast 126 145 9,000  Level Chicago Center
04:12PM 40.5956 -86.3247 120° Southeast 126 145 9,000  Level Chicago Center
04:13PM 40.5736 -86.2983 138° Southeast 121 139 9,000  Level Chicago Center
04:13PM 40.5672 -86.2894 133° Southeast 120 138 9,000  Level Chicago Center
04:13PM 40.5536 -86.2725 137° Southeast 125 144 9,000  Level Chicago Center
04:14PM 40.5419 -86.2564 134° Southeast 125 144 9,000  Level Chicago Center
04:15PM 40.5278 -86.2383 136° Southeast 125 144 9,000  Level Chicago Center
04:15PM 40.5172 -86.2242 134° Southeast 125 144 9,000  Level Chicago Center
04:16PM 40.5017 -86.2039 135° Southeast 126 145 9,000  Level Chicago Center
04:16PM 40.4939 -86.1903 127° Southeast 125 144 9,000  Level Chicago Center
04:17PM 40.4778 -86.1697 136° Southeast 125 144 9,000  Level Chicago Center
04:17PM 40.4700 -86.1553 125° Southeast 126 145 9,000  Level Chicago Center
04:18PM 40.4558 -86.1358 134° Southeast 124 143 9,000  Level Chicago Center
04:18PM 40.4478 -86.1211 126° Southeast 124 143 9,000  Level Chicago Center
04:19PM 40.4250 -86.0881 132° Southeast 123 142 9,000  Level Chicago Center
04:20PM 40.3989 -86.0497 132° Southeast 121 139 9,000  Level Chicago Center
04:21PM 40.3758 -86.0167 132° Southeast 122 140 9,000  Level Chicago Center
04:22PM 40.3531 -85.9831 132° Southeast 123 142 9,000  Level Chicago Center
04:23PM 40.3311 -85.9497 131° Southeast 121 139 9,100  Climbing Chicago Center
04:24PM 40.3083 -85.9181 133° Southeast 120 138 9,100 -60 Level Chicago Center
04:25PM 40.2856 -85.8858 133° Southeast 120 138 9,000 -60 Descending Chicago Center
04:26PM 40.2619 -85.8531 133° Southeast 121 139 9,000  Level Chicago Center
04:27PM 40.2350 -85.8158 133° Southeast 120 138 9,000  Level Chicago Center
04:28PM 40.2114 -85.7836 134° Southeast 121 139 9,000 -60 Level Chicago Center
04:30PM 40.1878 -85.7503 133° Southeast 123 142 8,900 -60 Descending Chicago Center
04:31PM 40.1642 -85.7181 134° Southeast 123 142 8,900  Level Chicago Center
04:32PM 40.1217 -85.6606 134° Southeast 123 142 9,000 60 Climbing Indianapolis Center
04:33PM 40.0958 -85.6233 132° Southeast 118 136 9,100  Climbing Indianapolis Center
04:35PM 40.0728 -85.5917 134° Southeast 119 137 9,000  Descending Indianapolis Center
04:36PM 40.0489 -85.5600 135° Southeast 121 139 9,100  Climbing Indianapolis Center
04:37PM 40.0250 -85.5283 135° Southeast 121 139 9,100  Level Indianapolis Center
04:38PM 40.0008 -85.4978 136° Southeast 121 139 9,100  Level Indianapolis Center
04:39PM 39.9778 -85.4650 133° Southeast 121 139 9,100  Level Indianapolis Center
04:40PM 39.9539 -85.4347 136° Southeast 120 138 9,100  Level Indianapolis Center
04:41PM 39.9278 -85.3981 133° Southeast 118 136 9,100  Level Indianapolis Center
04:42PM 39.9067 -85.3647 130° Southeast 119 137 9,100  Level Indianapolis Center
04:43PM 39.8850 -85.3325 131° Southeast 118 136 9,100  Level Indianapolis Center
04:44PM 39.8628 -85.2997 131° Southeast 119 137 9,100 -60 Level Indianapolis Center
04:45PM 39.8397 -85.2669 132° Southeast 121 139 9,000  Descending Indianapolis Center
04:46PM 39.8178 -85.2342 131° Southeast 120 138 9,100  Climbing Indianapolis Center
04:47PM 39.7900 -85.1947 132° Southeast 120 138 9,100  Level Indianapolis Center
04:48PM 39.7686 -85.1633 132° Southeast 120 138 9,100  Level Indianapolis Center
04:49PM 39.7461 -85.1297 131° Southeast 122 140 9,100  Level Indianapolis Center
04:50PM 39.7228 -85.0969 133° Southeast 122 140 9,100  Level Indianapolis Center
04:51PM 39.7003 -85.0642 132° Southeast 122 140 9,100  Level Indianapolis Center
04:52PM 39.6772 -85.0319 133° Southeast 121 139 9,100 -120 Level Indianapolis Center
04:53PM 39.6525 -84.9989 134° Southeast 125 144 8,900 -420 Descending Indianapolis Center
04:54PM 39.6264 -84.9631 133° Southeast 132 152 8,300 -720 Descending Indianapolis Center
04:55PM 39.5967 -84.9219 133° Southeast 134 154 7,500 -720 Descending Indianapolis Center
04:56PM 39.5708 -84.8861 133° Southeast 135 155 6,900 -600 Descending Indianapolis Center
04:57PM 39.5428 -84.8786 168° South 127 146 6,300 -540 Descending Indianapolis Center
04:58PM 39.5072 -84.8658 165° South 128 147 5,800 -540 Descending Indianapolis Center
04:59PM 39.4900 -84.8297 122° Southeast 121 139 5,200 -720 Descending Indianapolis Center
05:00PM 39.4778 -84.7892 111° Southeast 121 139 4,400 -660 Descending Indianapolis Center
05:01PM 39.4633 -84.7494 115° Southeast 125 144 3,900 -540 Descending Indianapolis Center